Location: Bothwell
(42.3833°S, 147.0000°E)
Time: 21:04:58
(UTC+11:00)

BEESAT - Pass Details

Date: 26 September 2022
Orbit: 699 x 706 km, 98.5° (Epoch: 25 November)

Event Time Altitude Azimuth Distance (km) Brightness Sun altitude
Exits shadow 19:32:00 17° 37° (NE) 1,730 ? -15.3°
Maximum altitude 19:35:28 53° 108° (ESE) 873 ? -15.9°
Drops below altitude 10° 19:40:11 10° 184° (S) 2,211 ? -16.7°
Sets 19:42:30 0° 188° (S) 3,139 ? -17.1°
